User: anonymous   Login
Location: Unspecified
(0.0000°N, 0.0000°E)
Time: 10:12:17
(UTC+00:00)
Language:

UHF F/O F4 - Orbit

View from above orbital plane
View from above orbital plane
View from above satellite
View from above satellite

Ground track
Ground track

The orbit data is extracted from the following two-line orbital elements,

1 23467U 95003A   16205.52290266 0.00000000  00000-0  00000-0 0    08
2 23467   9.3440  30.1637 0002004  34.3860 325.5722  1.00270000    00
Epoch (UTC): 23 July 2016 12:32:58
Eccentricity: 0.0002004
inclination: 9.3440°
perigee height: 35778 km
apogee height: 35795 km
right ascension of ascending node: 30.1637°
argument of perigee: 34.3860°
revolutions per day: 1.00270000
mean anomaly at epoch: 325.5722°
orbit number at epoch: 0

The dashed part of the orbit path shows where the satellite is in the earth's shadow,  

DLR